Regional Weather Roundup
Issued by NWS

Home | Current Version | Previous Version | Text Only | Print | Product List | Glossary Off
Versions: 1 2 3 4 5 6 7 8 9 10 11 12 13 14 15 16 17 18 19 20 21 22 23 24 25 26 27 28 29 30 31 32 33 34 35 36 37 38 39 40 41 42 43 44 45 46 47 48 49 50

622
ASUS45 KPSR 250910
RWRAZ

ARIZONA HOURLY REGIONAL WEATHER ROUNDUP
NATIONAL WEATHER SERVICE PHOENIX AZ
200 AM MST TUE JUL 25 2017

NOTE: FAIR INDICATES FEW OR NO CLOUDS BELOW 12,000 FEET WITH NO
SIGNIFICANT WEATHER AND/OR OBSTRUCTIONS TO VISIBILITY.

AZZ001>003-036-251000-
NORTHWEST ARIZONA

CITY           SKY/WX    TMP DP  RH WIND       PRES   REMARKS
KINGMAN        MOCLDY    70  68  93 CALM      30.04S
$$

AZZ004>008-015-016-018-251000-
NORTH CENTRAL ARIZONA

CITY           SKY/WX    TMP DP  RH WIND       PRES   REMARKS
GRAND CANYON   CLOUDY    62  61  96 CALM      30.25S
WILLIAMS       MOCLDY    61  59  94 S5        30.26S
PRESCOTT       MOCLDY    67  64  90 E3        30.16S
FLAGSTAFF      CLOUDY    59  59 100 VRB5      30.28F
PAYSON         MOCLDY    66  64  94 CALM      30.21S
PAGE           CLOUDY    76  62  62 N7        30.06S
$$

AZZ009>014-017-251000-
NORTHEAST ARIZONA

CITY           SKY/WX    TMP DP  RH WIND       PRES   REMARKS
WINSLOW        PTCLDY    65  64  97 SE5       30.15S
SAINT JOHNS    MOCLDY    63  63 100 CALM      30.21S FOG
WINDOW ROCK    CLOUDY    63  59  87 CALM      30.28F
SHOW LOW       CLOUDY    57  55  94 S7        30.27S
$$

AZZ540-542>544-546-548-251000-
GREATER PHOENIX AREA

CITY           SKY/WX    TMP DP  RH WIND       PRES   REMARKS
PHOENIX        LGT RAIN  83  74  74 CALM      29.89F
BUCKEYE        CLOUDY    82  79  89 E5        29.90S
LUKE AFB       CLOUDY    84  71  66 S5        29.89S
DEER VALLEY    MOCLDY    83  73  72 E3        29.92S
SCOTTSDALE     MOCLDY    83  72  69 S3        29.94S
MESA-GATEWAY   MOCLDY    79  75  89 SE3       29.93S
$$

AZZ539-553-251000-
SOUTHWEST MARICOPA COUNTY AND PINAL COUNTY

CITY           SKY/WX    TMP DP  RH WIND       PRES   REMARKS
CASA GRANDE    CLOUDY    81  73  76 E3        29.94S
GILA BEND      CLOUDY    82  75  78 SE6       29.86F
$$

AZZ503-504-507>509-251000-
SOUTHEAST ARIZONA

CITY           SKY/WX    TMP DP  RH WIND       PRES   REMARKS
TUCSON         MOCLDY    76  71  85 SE7       30.03S
DAVIS-MONTHAN  MOCLDY    74  73  95 SE8       30.02S
NOGALES        CLEAR     69  66  90 NE3       30.11R
SIERRA VISTA   PTCLDY    67  64  89 CALM      30.18S
DOUGLAS        CLEAR     67  66  97 CALM      30.13S
SAFFORD        CLOUDY    73  71  93 CALM      30.06R
$$

AZZ532-251000-
SOUTHWEST ARIZONA

CITY           SKY/WX    TMP DP  RH WIND       PRES   REMARKS
YUMA           PTCLDY    89  58  34 SE8       29.81R
$$

CAZ041-043-047-048-061-525>527-560>570-251000-
SOUTHERN CALIFORNIA

CITY           SKY/WX    TMP DP  RH WIND       PRES   REMARKS
DOWNTOWN L.A.  PTCLDY    69  63  81 CALM      29.94F
L.A. AIRPORT   MOCLDY    68  64  87 W6        29.95S
SAN DIEGO      MOCLDY    70  63  78 CALM      29.96F
BURBANK        PTCLDY    67  62  84 S6        29.95S
ONTARIO        MOCLDY    69  61  75 W12       29.95S
RIVERSIDE      MOCLDY    69  64  84 W3        29.95S
PALM SPRINGS   PTCLDY    87  60  40 NW9       29.84S
EL CENTRO NAS  PTCLDY    85  68  56 VRB3      29.79F
IMPERIAL       PTCLDY    86  70  58 SE7       29.77S
BLYTHE         PTCLDY    88  72  58 S3        29.82S
NEEDLES        MOCLDY    90  69  50 E5        29.85F
$$

NVZ020-UTZ003-251000-
SOUTHERN NEVADA-UTAH

CITY           SKY/WX    TMP DP  RH WIND       PRES   REMARKS
LAS VEGAS      CLOUDY    85  66  53 S6        29.90S
SALT LAKE CITY CLOUDY    72  64  76 SE8       30.06F
$$

NMZ009-TXZ055-251000-
NEW MEXICO-WEST TEXAS

CITY           SKY/WX    TMP DP  RH WIND       PRES   REMARKS
ALBUQUERQUE    CLOUDY    73  58  59 SE6       30.18R
EL PASO        PTCLDY    75  63  66 SW8       30.09F
$$


........................KEY........................
SKY/WX - SKY CONDITION/WEATHER
TMP    - TEMPERATURE IN FAHRENHEIT
DP     - DEW POINT IN FAHRENHEIT
RH     - RELATIVE HUMIDITY IN PERCENT
WIND   - DIRECTION AND SPEED IN MILES PER HOUR (MPH)
VRB    - VARIABLE WIND DIRECTION
PRES   - MEAN SEA LEVEL PRESSURE IN INCHES OF MERCURY
         F - FALLING PRESSURE   R - RISING PRESSURE
         S - STEADY PRESSURE
VSB    - VISIBILITY IN MILES
HX     - HEAT INDEX IN FAHRENHEIT
WCI    - WIND CHILL INDEX IN FAHRENHEIT
TC     - TEMPERATURE IN CELSIUS WHICH IS ALSO KNOWN AS
         TEMPERATURE IN CENTIGRADE
AFB    - AIR FORCE BASE
         LUKE AFB IS LUKE AIR FORCE BASE
         DAVIS-MONTHAN IS DAVIS-MONTHAN AIR FORCE BASE
NAS    - NAVAL AIR STATION
         EL CENTRO NAS IS EL CENTRO NAVAL AIR STATION
N/A    - NOT AVAILABLE





USA.gov is the U.S. government's official web portal to all federal, state and local government web resources and services.